Location: Amsterdam
(30.7274°N, 84.4357°W)
Time: 12:26:16
(UTC+00:00)

ISS - Visible Passes

Search period start: 21 January 2026 00:00
Search period end: 31 January 2026 00:00
Orbit: 413 x 423 km, 51.6° (Epoch: 20 January)

Date Brightness Start Highest point End Pass type
(mag) Time Alt. Az. Time Alt. Az. Time Alt. Az.
27 Jan -1.5 23:59:32 10° NNE 00:00:37 11° NNE 00:00:43 11° NE visible
29 Jan -2.5 00:46:12 10° NW 00:48:11 31° NNW 00:48:11 31° NNW visible
29 Jan -2.8 23:58:11 10° NNW 00:01:08 28° NE 00:02:55 18° E visible
30 Jan -0.4 01:35:22 10° W 01:35:55 13° W 01:35:55 13° W visible
